This demonstration page uses our WeatherBlox Daily Observations layout. Learn more.

Left ArrowRight Arrow

41.86663, -103.66717

Hourly Observations for April 1, 2018

Temp ( °F °C ) Dew Point ( °F °C ) Humidity (%) Winds ( mph kmh ) Pressure ( in mb ) Visibility ( mi km ) Precip ( " mm )
12:51 am 00:51 Cloudy with Light Snow 21 -6 19 -7 93 93 E 9 15 30.42 1030 2 3 0.01 0.25
12:53 am 00:53 Cloudy with Light Snow 21 -6.1 19 -7.2 92 92 E 9 15 30.34 1028 2 3 0.01 0.25
1:15 am 01:15 Cloudy with Light Snow 21 -6.1 19 -7.2 92 92 E 8 13 30.42 1030 2 3 0.01 0.25
1:22 am 01:22 Cloudy with Light Snow 21 -6 19 -7 93 93 E 9 15 30.42 1030 2 2 N/A
1:53 am 01:53 Mostly Cloudy with Light Snow 21 -6.1 19 -7.2 92 92 E 7 11 30.33 1027 1 2 0.03 0.76
2:06 am 02:06 Mostly Cloudy with Light Snow 21 -6.1 19 -7.2 92 92 E 7 11 30.42 1030 1 2 0.01 0.25
2:19 am 02:19 Mostly Cloudy with Light Snow 21 -6.1 19 -7.2 92 92 E 7 11 30.42 1030 1 1 0.02 0.51
2:41 am 02:41 Mostly Cloudy with Light Snow 21 -6.1 19 -7.2 92 92 E 7 11 30.39 1029 1 2 0.03 0.76
2:53 am 02:53 Mostly Cloudy with Light Snow 21 -6.1 19 -7.2 92 92 E 8 13 30.31 1026 1 2 0.04 1.02
3:01 am 03:01 Mostly Cloudy with Light Snow 21 -6.1 19 -7.2 92 92 ESE 7 11 30.39 1029 1 1 0.01 0.25
3:23 am 03:23 Mostly Cloudy with Snow 21 -6.1 19 -7.2 92 92 ESE 8 13 30.39 1029 1 1 0.04 1.02
3:44 am 03:44 Mostly Cloudy with Light Snow 21 -6 19 -7 93 93 SE 8 13 30.39 1029 1 2 N/A
3:53 am 03:53 Cloudy with Light Snow 21 -6.1 19 -7.2 92 92 SE 8 13 30.29 1026 1 2 0.06 1.52
4:02 am 04:02 Mostly Cloudy with Light Snow 21 -6 19 -7 93 93 SE 9 15 30.36 1028 1 2 N/A
4:09 am 04:09 Mostly Cloudy with Light Snow 21 -6.1 19 -7.2 92 92 SE 9 15 30.36 1028 1 1 0.02 0.51
4:16 am 04:16 Mostly Cloudy with Light Snow 21 -6 19 -7 93 93 SE 9 15 30.36 1028 1 2 N/A
4:53 am 04:53 Cloudy with Light Snow 21 -6.1 19 -7.2 92 92 SE 9 15 30.27 1025 2 3 0.03 0.76
4:55 am 04:55 Cloudy with Light Snow 21 -6.1 19 -7.2 92 92 SE 9 15 30.36 1028 2 3 N/A
5:50 am 05:50 Cloudy with Light Snow 19 -7 19 -7 100 100 ESE 10 17 30.36 1028 2 3 0.01 0.25
5:53 am 05:53 Cloudy with Light Snow 20 -6.7 18 -7.8 92 92 ESE 12 19 30.26 1025 2 3 0.01 0.25
6:24 am 06:24 Cloudy with Light Snow 20 -6.7 18 -7.8 92 92 SE 13 20 30.36 1028 2 3 0.01 0.25
6:35 am 06:35 Cloudy with Light Snow 20 -6.7 18 -7.8 92 92 ESE 10 17 30.36 1028 4 6 0.01 0.25
6:53 am 06:53 Cloudy 20 -6.7 18 -7.8 92 92 ESE 12 19 30.27 1025 7 11 0.01 0.25
7:53 am 07:53 Cloudy 21 -6.1 19 -7.2 92 92 ESE 13 20 30.26 1025 10 16 N/A
8:53 am 08:53 Cloudy 22 -5.6 20 -6.7 92 92 SE 9 15 30.26 1025 10 16 N/A
9:53 am 09:53 Cloudy 26 -3.3 20 -6.7 78 78 SSE 12 19 30.24 1024 10 16 N/A
10:53 am 10:53 Cloudy 29 -1.7 21 -6.1 72 72 S 10 17 30.22 1023 10 16 N/A
11:53 am 11:53 Sunny 30 -1.1 21 -6.1 69 69 S 9 15 30.16 1022 10 16 N/A
12:53 pm 12:53 Sunny 33 0.6 25 -3.9 72 72 S 13 20 30.11 1020 10 16 N/A
1:53 pm 13:53 Sunny 35 1.7 26 -3.3 70 70 S 9 15 30.07 1018 10 16 N/A
2:53 pm 14:53 Mostly Sunny 38 3.3 28 -2.2 68 68 SSE 10 17 30.02 1017 10 16 N/A
3:53 pm 15:53 Sunny 40 4.4 29 -1.7 65 65 SE 15 24 29.95 1014 10 16 N/A
4:53 pm 16:53 Sunny 41 5 31 -0.6 67 67 SE 15 24 29.91 1013 10 16 N/A
5:53 pm 17:53 Sunny 43 6.1 32 undefined 65 65 SE 15 24 29.88 1012 10 16 N/A
6:53 pm 18:53 Sunny 40 4.4 32 undefined 73 73 ESE 15 24 29.87 1012 10 16 N/A
7:53 pm 19:53 Clear 35 1.7 30 -1.1 82 82 ESE 17 28 29.85 1011 10 16 N/A
8:53 pm 20:53 Clear 32 undefined 29 -1.7 88 88 ESE 17 28 29.85 1011 10 16 N/A
9:53 pm 21:53 Clear 32 undefined 29 -1.7 88 88 ESE 16 26 29.81 1009 10 16 N/A
10:53 pm 22:53 Clear 31 -0.6 28 -2.2 89 89 ESE 16 26 29.77 1008 10 16 N/A
11:53 pm 23:53 Clear 32 undefined 27 -2.8 82 82 ESE 15 24 29.73 1007 10 16 N/A

Powered by AerisWeather